Regional Weather Roundup
Issued by NWS

Home | Current Version | Previous Version | Text Only | Print | Product List | Glossary On
Versions: 1 2 3 4 5 6 7 8 9 10 11 12 13 14 15 16 17 18 19 20 21 22 23 24 25 26 27 28 29 30 31 32 33 34 35 36 37 38 39 40 41 42 43 44 45 46 47 48 49 50
196
ASUS43 KMPX 211201
RWRMN
WEATHER ROUNDUP FOR MINNESOTA
NATIONAL WEATHER SERVICE TWIN CITIES/CHANHASSEN MN
700 AM CDT THU MAY 21 2015


NOTE: "FAIR" INDICATES FEW OR NO CLOUDS BELOW 12,000 FEET WITH NO
SIGNIFICANT WEATHER AND/OR OBSTRUCTIONS TO VISIBILITY. N/A MEANS
CURRENT SKY AND/OR WEATHER CONDITIONS ARE NOT AVAILABLE.

MNZ060>063-068>070-211300-
   Twin Cities Metro

CITY           SKY/WX    TMP DP  RH WIND       PRES   REMARKS
TWIN CITIES    MOSUNNY   47  36  65 SW7       30.05S
6HR MIN TEMP:  45; 6HR MAX TEMP:  50;

ST PAUL        SUNNY     47  38  71 CALM      30.06S
CRYSTAL        MOSUNNY   46  37  71 S5        30.03S
BLAINE         MOSUNNY   46  37  71 S6        30.03S
LAKEVILLE      SUNNY     45  37  76 SW6       30.06S
EDEN PRAIRIE   PTSUNNY   44  36  73 SW7       30.05S
6HR MIN TEMP:  40; 6HR MAX TEMP:  47;

SOUTH ST PAUL  MOSUNNY   47  36  65 CALM      30.05S
LAKE ELMO      FAIR      45  37  76 S3        30.05S
$$
MNZ001>005-007-008-013>017-022>024-027-028-211300-
   Northwest Minnesota

CITY           SKY/WX    TMP DP  RH WIND       PRES   REMARKS
BEMIDJI        SUNNY     43  37  77 NW7       30.05R
HALLOCK        SUNNY     43  36  75 N9        30.13R
ROSEAU         SUNNY     43  36  75 N6        30.11R
WARROAD        SUNNY     43  36  75 NW5       30.11R
THIEF RVR FALL SUNNY     45  36  70 N8        30.10R
CROOKSTON      SUNNY     43  37  81 N9        30.12R
FOSSTON        SUNNY     41  36  81 N3        30.09R
DETROIT LAKES  FAIR      43  37  81 NW9       30.08R
MOORHEAD       SUNNY     45  39  81 N9        30.11R
PARK RAPIDS    SUNNY     46  37  71 NW6       30.04R
MAHNOMEN       FAIR      40  37  87 NW6       30.08R
$$
MNZ006-009>011-018-025>026-211300-
   North Central Minnesota

CITY           SKY/WX    TMP DP  RH WIND       PRES   REMARKS
BAUDETTE       SUNNY     46  37  71 N8        30.08R
FLAG ISLAND    SUNNY     48  36  61 NE8       30.08S
INTL FALLS     SUNNY     45  34  65 NW5       30.05R
6HR MIN TEMP:  42; 6HR MAX TEMP:  53;

WASKISH        SUNNY     45  36  70 N7        30.07R
BIG FORK       SUNNY     45  34  65 N3        30.03R
LONGVILLE      SUNNY     48  39  71 NW3       30.02R
GRAND RAPIDS   SUNNY     46  36  66 N7        30.01R
CRANE LAKE     SUNNY     43  34  70 N3        30.04R
ORR            SUNNY     43  32  65 CALM      30.00R
COOK           SUNNY     46  36  66 CALM      30.01R
WALKER         FAIR      42  34  75 W3        30.03R
$$
MNZ012-019>021-037-211300-
   Northeast Minnesota

CITY           SKY/WX    TMP DP  RH WIND       PRES   REMARKS
DULUTH         MOSUNNY   50  34  54 NW8       29.96R
6HR MIN TEMP:  47; 6HR MAX TEMP:  53;

ELY            SUNNY     45  34  65 CALM      30.00R
HIBBING        SUNNY     49  35  58 N5        29.98R
EVELETH        SUNNY     50  36  57 NE9       29.99R
DULUTH HARBOR  SUNNY     48  39  71 SW8       29.97R
TWO HARBORS    SUNNY     55  37  50 NW3       29.93R
SILVER BAY     SUNNY     54  34  47 N7        29.94R
GRAND MARAIS     N/A     49  33  54 NE6       29.96R
G MARAIS ARPRT SUNNY     45  28  53 N12       29.97R
$$
MNZ029>031-032-039>041-046>048-054>057-064-211300-
   West Central Minnesota

CITY           SKY/WX    TMP DP  RH WIND       PRES   REMARKS
FERGUS FALLS   SUNNY     45  39  81 NW8       30.10R
WHEATON        SUNNY     48  37  66 W9        30.13R
MORRIS         SUNNY     50  39  66 NW13      30.08R
ALEXANDRIA     SUNNY     48  40  73 NW9       30.07R
ELBOW LAKE     FAIR      46  40  82 NW10      30.08R
WADENA         SUNNY     46  37  71 NW7       30.04R
GLENWOOD       SUNNY     46  39  76 W10       30.06R
APPLETON       SUNNY     52  37  58 NW12      30.08R
BENSON         SUNNY     48  39  71 N7        30.08R
ORTONVILLE     SUNNY     52  36  54 W14       30.10R
MADISON        SUNNY     54  34  47 W15       30.10R
WILLMAR        FAIR      46  39  76 W9        30.08S
$$
MNZ033>034-036-042>043-049>051-058-059-211300-
   Central Minnesota

CITY           SKY/WX    TMP DP  RH WIND       PRES   REMARKS
ST CLOUD       SUNNY     48  40  73 W6        30.02R
6HR MIN TEMP:  41; 6HR MAX TEMP:  48;

SAUK CENTRE    FAIR      47  40  77 W5        30.05R
PAYNESVILLE    SUNNY     44  39  83 SW12      30.05R
AITKIN         SUNNY     50  37  62 W3        29.98S
PINE RIVER     SUNNY     46  37  71 NW3       30.05R
BRAINERD       SUNNY     49  39  68 N3        30.02R
STAPLES        SUNNY     46  37  71 NW8       30.03R
LONG PRAIRIE   FAIR      46  37  71 W12       30.04R
LITTLE FALLS   SUNNY     46  37  71 W5        30.02R
LITCHFIELD     MOSUNNY   50  39  66 W5        30.05S
BUFFALO        PTSUNNY   47  38  71 S5        30.04S
MAPLE LAKE     PTSUNNY   49  41  72 SW6       30.04S
$$
MNZ037-044-045-052-053-211300-
   East Central Minnesota

CITY           SKY/WX    TMP DP  RH WIND       PRES   REMARKS
PRINCETON      MOSUNNY   48  39  71 SW5       30.01S
MORA           SUNNY     45  36  70 NW5       30.02R
CAMBRIDGE      MOSUNNY   48  36  61 S3        29.99S
RUSH CITY      PTSUNNY   47  38  70 CALM      30.01S
MOOSE LAKE     SUNNY     48  36  61 W6        29.97R
HINCKLEY       FAIR      43  39  87 CALM      30.00R
CLOQUET        SUNNY     48  36  61 W8        29.97R
MCGREGOR       SUNNY     48  37  66 W5        29.99S
$$
MNZ071>073-080-081-089-090-097-098-211300-
   Southwest Minnesota

CITY           SKY/WX    TMP DP  RH WIND       PRES   REMARKS
MONTEVIDEO     SUNNY     52  37  58 NW10G16   30.09S
GRANITE FALLS  SUNNY     50  36  58 W14       30.10S
CANBY          SUNNY     53  33  47 W14G20    30.12S
MARSHALL       SUNNY     54  30  40 NW16      30.10S
REDWOOD FALLS  SUNNY     50  36  58 W12       30.08S
OLIVIA         SUNNY     46  36  66 W8        30.06F
PIPESTONE      FAIR      45  34  65 W8        30.16R
WINDOM         SUNNY     45  36  70 W9        30.12S
WORTHINGTON    CLOUDY    45  30  57 W15       30.15S
JACKSON        MOSUNNY   46  32  57 W14       30.13S
TRACY          SUNNY     52  34  50 W10G17    30.11S
SLAYTON        SUNNY     47  33  57 W13       30.15R
$$
MNZ065>067-074>077-082>085-091>093-211300-
   South Central Minnesota

CITY           SKY/WX    TMP DP  RH WIND       PRES   REMARKS
MANKATO        MOSUNNY   46  37  71 W9        30.09S
NEW ULM        SUNNY     46  37  71 W9        30.09S
ST JAMES       SUNNY     48  36  61 W9        30.11S
FAIRMONT       SUNNY     46  34  61 W10       30.11S
GLENCOE        MOSUNNY   47  40  76 SW5       30.06S
FARIBAULT      SUNNY     45  39  81 S5        30.08S
OWATONNA       SUNNY     45  37  76 SW6       30.09S
WASECA         SUNNY     41  37  87 SW7       30.11R
ALBERT LEA     SUNNY     45  39  81 SW5       30.11R
$$
MNZ078>079-086>088-094>096-211300-
   Southeast Minnesota

CITY           SKY/WX    TMP DP  RH WIND       PRES   REMARKS
ROCHESTER      SUNNY     44  39  82 W14       30.09S
6HR MIN TEMP:  42; 6HR MAX TEMP:  44;

RED WING       SUNNY     43  41  93 CALM      30.06S
STANTON        SUNNY     45  40  82 SW8       30.06S
DODGE CENTER   SUNNY     45  39  81 W13       30.08S
WINONA         SUNNY     46  41  81 CALM      30.08S
AUSTIN         SUNNY     43  39  87 SW5       30.10S
PRESTON        MOSUNNY   43  38  83 W10       30.09F
$$
ABBREVIATIONS USED IN REMARKS
   TC - TEMPERATURES IN CELSIUS
  WCI - WIND CHILL INDEX
   HX - HEAT INDEX
  VSB - VISIBILITY
$$



USA.gov is the U.S. government's official web portal to all federal, state and local government web resources and services.